EN

Hourly Weather La Crosse

Today, 23 July, Friday

Time Temperature Precipitation Wind Pressure Humidity
00:00 +23°C° 0 mm 2 mps 745 mmHg 93%
01:00 +21°C° 0 mm 2 mps 745 mmHg 93%
02:00 +21°C° 0 mm 2 mps 745 mmHg 94%
03:00 +21°C° 0 mm 2 mps 744 mmHg 94%
04:00 +21°C° 0 mm 2 mps 745 mmHg 94%
05:00 +21°C° 0 mm 2 mps 745 mmHg 94%
06:00 +21°C° 0 mm 2 mps 745 mmHg 94%
07:00 +24°C° 0 mm 3 mps 745 mmHg 87%
08:00 +26°C° 0 mm 4 mps 745 mmHg 79%
09:00 +28°C° 0 mm 4 mps 744 mmHg 72%
10:00 +29°C° 0 mm 4 mps 744 mmHg 68%
11:00 +30°C° 0 mm 5 mps 744 mmHg 63%
12:00 +32°C° 0 mm 5 mps 744 mmHg 59%
13:00 +33°C° 0 mm 5 mps 743 mmHg 59%
14:00 +33°C° 0 mm 5 mps 743 mmHg 59%
15:00 +33°C° 0 mm 5 mps 743 mmHg 60%
16:00 +33°C° 0 mm 4 mps 742 mmHg 65%
17:00 +32°C° 0 mm 4 mps 742 mmHg 69%
18:00 +30°C° 0 mm 4 mps 741 mmHg 74%
19:00 +29°C° 0 mm 3 mps 741 mmHg 80%
20:00 +27°C° 0 mm 3 mps 741 mmHg 85%
21:00 +26°C° 0 mm 3 mps 741 mmHg 91%
22:00 +26°C° 0 mm 3 mps 741 mmHg 92%
23:00 +25°C° 0 mm 3 mps 741 mmHg 92%

Tomorrow, 24 July, Saturday

Time Temperature Precipitation Wind Pressure Humidity
00:00 +25°C° 0 mm 4 mps 741 mmHg 93%
01:00 +25°C° 0 mm 4 mps 741 mmHg 92%
02:00 +25°C° 0 mm 4 mps 741 mmHg 92%
03:00 +25°C° 0 mm 4 mps 741 mmHg 91%
04:00 +25°C° 0.3 mm 3 mps 740 mmHg 92%
05:00 +25°C° 0.3 mm 3 mps 740 mmHg 93%
06:00 +24°C° 0.3 mm 2 mps 740 mmHg 95%
07:00 +25°C° 0 mm 2 mps 740 mmHg 94%
08:00 +25°C° 0 mm 3 mps 740 mmHg 93%
09:00 +26°C° 0 mm 3 mps 740 mmHg 92%
10:00 +28°C° 0 mm 3 mps 740 mmHg 82%
11:00 +30°C° 0 mm 4 mps 740 mmHg 72%
12:00 +33°C° 0 mm 5 mps 741 mmHg 62%
13:00 +34°C° 0 mm 4 mps 740 mmHg 60%
14:00 +34°C° 0 mm 4 mps 740 mmHg 59%
15:00 +34°C° 0 mm 4 mps 740 mmHg 58%
16:00 +34°C° 0 mm 3 mps 740 mmHg 62%
17:00 +32°C° 0 mm 2 mps 740 mmHg 67%
18:00 +32°C° 0 mm 1 mps 740 mmHg 71%
19:00 +29°C° 0 mm 1 mps 740 mmHg 73%
20:00 +27°C° 0 mm 1 mps 740 mmHg 75%
21:00 +25°C° 0 mm 1 mps 741 mmHg 77%
22:00 +24°C° 0 mm 1 mps 741 mmHg 77%
23:00 +23°C° 0 mm 1 mps 741 mmHg 78%

Day after tomorrow, 25 July, Sunday

Time Temperature Precipitation Wind Pressure Humidity
00:00 +22°C° 0 mm 1 mps 741 mmHg 78%
01:00 +22°C° 0 mm 1 mps 741 mmHg 78%
02:00 +21°C° 0 mm 1 mps 742 mmHg 79%
03:00 +21°C° 0 mm 1 mps 742 mmHg 79%
04:00 +21°C° 0 mm 1 mps 742 mmHg 80%
05:00 +22°C° 0 mm 1 mps 742 mmHg 81%
06:00 +22°C° 0 mm 1 mps 742 mmHg 82%
07:00 +24°C° 0 mm 1 mps 743 mmHg 76%
08:00 +27°C° 0 mm 1 mps 743 mmHg 71%
09:00 +29°C° 0 mm 1 mps 743 mmHg 65%
10:00 +30°C° 0 mm 2 mps 743 mmHg 60%
11:00 +32°C° 0 mm 2 mps 743 mmHg 55%
12:00 +34°C° 0 mm 2 mps 743 mmHg 50%
13:00 +34°C° 0 mm 2 mps 742 mmHg 52%
14:00 +34°C° 0 mm 2 mps 742 mmHg 53%
15:00 +35°C° 0 mm 2 mps 741 mmHg 55%
16:00 +33°C° 0.1 mm 3 mps 742 mmHg 63%
17:00 +30°C° 0.1 mm 3 mps 742 mmHg 71%
18:00 +29°C° 0.1 mm 3 mps 742 mmHg 80%
19:00 +28°C° 0 mm 2 mps 742 mmHg 78%
20:00 +26°C° 0 mm 2 mps 742 mmHg 76%
21:00 +25°C° 0 mm 2 mps 742 mmHg 74%
22:00 +25°C° 0.1 mm 1 mps 742 mmHg 79%
23:00 +24°C° 0.1 mm 1 mps 742 mmHg 84%

26 July, Monday

Time Temperature Precipitation Wind Pressure Humidity
00:00 +24°C° 0.1 mm 1 mps 742 mmHg 90%
01:00 +24°C° 0.1 mm 1 mps 742 mmHg 91%
02:00 +23°C° 0.1 mm 1 mps 743 mmHg 92%
03:00 +23°C° 0.1 mm 1 mps 743 mmHg 93%
04:00 +23°C° 0 mm 1 mps 743 mmHg 92%
05:00 +23°C° 0 mm 1 mps 743 mmHg 91%
06:00 +23°C° 0 mm 1 mps 743 mmHg 90%
07:00 +25°C° 0 mm 2 mps 743 mmHg 84%
08:00 +27°C° 0 mm 2 mps 743 mmHg 77%
09:00 +30°C° 0 mm 3 mps 743 mmHg 71%
10:00 +31°C° 0 mm 3 mps 743 mmHg 65%
11:00 +33°C° 0 mm 3 mps 743 mmHg 60%
12:00 +35°C° 0 mm 3 mps 743 mmHg 54%
13:00 +35°C° 0 mm 3 mps 743 mmHg 53%
14:00 +35°C° 0 mm 3 mps 743 mmHg 51%
15:00 +36°C° 0 mm 3 mps 743 mmHg 50%
16:00 +35°C° 0 mm 2 mps 743 mmHg 57%
17:00 +34°C° 0 mm 2 mps 742 mmHg 64%
18:00 +32°C° 0 mm 2 mps 742 mmHg 72%
19:00 +31°C° 0 mm 2 mps 742 mmHg 75%
20:00 +29°C° 0 mm 2 mps 742 mmHg 78%
21:00 +28°C° 0 mm 2 mps 743 mmHg 80%
22:00 +27°C° 0 mm 2 mps 743 mmHg 84%
23:00 +26°C° 0 mm 2 mps 743 mmHg 88%

27 July, Tuesday

Time Temperature Precipitation Wind Pressure Humidity
00:00 +26°C° 0 mm 2 mps 743 mmHg 92%
01:00 +26°C° 0 mm 2 mps 743 mmHg 93%
02:00 +25°C° 0 mm 2 mps 743 mmHg 95%
03:00 +25°C° 0 mm 2 mps 743 mmHg 96%
04:00 +25°C° 0 mm 2 mps 743 mmHg 96%
05:00 +25°C° 0 mm 2 mps 743 mmHg 96%
06:00 +25°C° 0 mm 2 mps 743 mmHg 96%
07:00 +27°C° 0 mm 3 mps 743 mmHg 89%
08:00 +29°C° 0 mm 3 mps 743 mmHg 83%
09:00 +32°C° 0 mm 4 mps 743 mmHg 77%
10:00 +33°C° 0 mm 5 mps 742 mmHg 71%
11:00 +35°C° 0 mm 5 mps 742 mmHg 65%
12:00 +36°C° 0 mm 6 mps 741 mmHg 59%
13:00 +36°C° 0 mm 6 mps 741 mmHg 58%
14:00 +38°C° 0 mm 6 mps 740 mmHg 58%
15:00 +38°C° 0 mm 6 mps 740 mmHg 57%
16:00 +36°C° 0 mm 6 mps 739 mmHg 59%
17:00 +35°C° 0 mm 6 mps 739 mmHg 62%
18:00 +35°C° 0 mm 7 mps 739 mmHg 64%
19:00 +32°C° 0.2 mm 6 mps 738 mmHg 66%
20:00 +28°C° 0.2 mm 6 mps 738 mmHg 67%
21:00 +26°C° 0.2 mm 6 mps 738 mmHg 69%
22:00 +25°C° 0.2 mm 4 mps 738 mmHg 72%
23:00 +25°C° 0.2 mm 3 mps 739 mmHg 76%

28 July, Wednesday

Time Temperature Precipitation Wind Pressure Humidity
00:00 +24°C° 0.2 mm 2 mps 739 mmHg 79%
01:00 +23°C° 0 mm 2 mps 739 mmHg 83%
02:00 +23°C° 0 mm 2 mps 740 mmHg 86%
03:00 +23°C° 0 mm 2 mps 740 mmHg 90%
04:00 +23°C° 0 mm 2 mps 741 mmHg 92%
05:00 +23°C° 0 mm 2 mps 741 mmHg 94%
06:00 +23°C° 0 mm 1 mps 742 mmHg 96%
07:00 +24°C° 0 mm 2 mps 742 mmHg 87%
08:00 +25°C° 0 mm 2 mps 743 mmHg 77%
09:00 +27°C° 0 mm 3 mps 743 mmHg 68%
10:00 +28°C° 0 mm 3 mps 744 mmHg 62%
11:00 +29°C° 0 mm 3 mps 744 mmHg 55%
12:00 +31°C° 0 mm 2 mps 744 mmHg 49%
13:00 +31°C° 0 mm 3 mps 744 mmHg 47%
14:00 +31°C° 0 mm 3 mps 744 mmHg 46%
15:00 +33°C° 0 mm 4 mps 744 mmHg 44%
16:00 +30°C° 0 mm 3 mps 744 mmHg 51%
17:00 +29°C° 0 mm 3 mps 744 mmHg 58%
18:00 +28°C° 0 mm 2 mps 744 mmHg 66%
19:00 +27°C° 0 mm 2 mps 745 mmHg 64%
20:00 +25°C° 0 mm 2 mps 745 mmHg 63%
21:00 +23°C° 0 mm 2 mps 746 mmHg 62%
22:00 +21°C° 0 mm 2 mps 746 mmHg 60%
23:00 +20°C° 0 mm 2 mps 746 mmHg 58%
Show more